"timestamp";"minute";"mean_h";"std_h";"mean_l";"std_l"
2018-05-31T09:20:56;1;-139.99956;0.01437399;-140.0;0.0
2019-11-13T13:35:56;1;-139.99368;0.08490291;-139.99278;0.101980254
2019-11-13T13:40:56;1;-139.99913;0.020319482;-139.99823;0.028843407
2019-11-13T13:45:56;1;-139.99907;0.02874798;-139.99812;0.04082483
2019-11-13T13:50:56;1;-139.99634;0.053703047;-139.99911;0.020412415
2019-11-13T13:55:56;1;-139.99634;0.074664265;-140.0;0.0
2019-11-13T14:00:56;1;-139.99808;0.045443267;-139.99614;0.064517386
2019-11-13T15:40:56;1;-139.99956;0.01437399;-140.0;0.0
2019-11-13T15:45:56;1;-139.9956;0.07180334;-139.99489;0.084129475
2019-11-13T15:50:56;1;-139.9982;0.035184663;-139.99724;0.045613058
2019-11-13T15:55:56;1;-139.99727;0.045405645;-139.99812;0.04082483
2019-11-13T16:00:56;1;-139.99721;0.04975176;-139.99812;0.04082483
2019-11-13T16:05:56;1;-139.99731;0.04059689;-140.0;0.0
2019-11-13T16:10:56;1;-139.99425;0.094185814;-139.99403;0.08653022
2019-11-13T16:15:56;1;-139.9954;0.07997759;-139.99348;0.10404988
2019-11-13T16:20:56;1;-110.726135;2.591039;-110.92909;2.566153
2019-11-13T16:25:56;1;-110.146866;2.6238708;-109.6113;2.591868
2019-11-13T16:55:56;1;-113.95523;2.532273;-113.96319;2.4919565
2019-11-13T17:00:56;1;-113.94112;2.4006093;-113.980576;2.3166182
2019-11-13T17:05:56;1;-113.74489;2.3970857;-113.7063;2.4498236
2019-11-13T17:10:56;1;-113.89861;2.402197;-113.89423;2.381747
2019-11-13T17:15:56;1;-113.82826;2.4245863;-113.72844;2.4444854
2019-11-13T17:20:56;1;-113.713135;2.4142058;-113.65901;2.4641283
2019-11-13T17:25:56;1;-113.81073;2.40685;-113.78485;2.438475
2019-11-13T17:30:56;1;-113.71932;2.440395;-113.80189;2.4669497
2019-11-13T17:35:56;1;-113.5449;2.5052598;-113.44805;2.506858
2019-11-13T17:40:56;1;-113.643196;2.4513106;-113.74137;2.493798
2019-11-13T17:45:56;1;-113.69967;2.4307828;-113.77354;2.405223
2019-11-13T17:50:56;1;-113.803375;2.5068507;-113.82391;2.5332367
2019-11-13T17:55:56;1;-113.84571;2.4659555;-113.82466;2.459522
2019-11-13T18:00:56;1;-113.62297;2.4241574;-113.65543;2.433043
2019-11-13T18:05:56;1;-113.6233;2.4664996;-113.57078;2.4708414
2019-11-13T18:10:56;1;-113.52739;2.4625177;-113.41505;2.3933094
2019-11-13T18:15:56;1;-113.72615;2.4461148;-113.53703;2.4902031
2019-11-13T18:20:56;1;-113.613235;2.3837037;-113.7645;2.3295996
2019-11-13T18:25:56;1;-113.65995;2.470561;-113.834694;2.421805
2019-11-13T18:30:56;1;-113.60556;2.447266;-113.55516;2.5219455
2019-11-13T18:35:56;1;-113.45059;2.488538;-113.156204;2.4987538
2019-11-13T18:40:56;1;-113.57203;2.425258;-113.55759;2.4276252
2019-11-13T18:45:56;1;-113.76299;2.455255;-113.76908;2.456238
2019-11-13T18:50:56;1;-113.89416;2.4373076;-113.94999;2.4954705
2019-11-13T18:55:56;1;-113.83835;2.4804032;-113.70801;2.4859974
2019-11-13T19:00:56;1;-113.86966;2.3594048;-113.944374;2.3751514
2019-11-13T19:05:56;1;-113.80467;2.486373;-113.86633;2.4803984
2019-11-13T19:10:56;1;-113.89215;2.4454386;-113.914406;2.453858
2019-11-13T19:15:56;1;-113.813225;2.5383155;-113.695915;2.5464892
2019-11-13T19:20:56;1;-113.846054;2.4009311;-113.80959;2.3853567
2019-11-13T19:25:56;1;-113.845345;2.4804416;-113.81287;2.5963376
2019-11-13T19:30:56;1;-113.72279;2.468521;-113.634346;2.4120004
2019-11-13T19:35:56;1;-113.33295;2.448857;-113.14059;2.5092704
2019-11-13T19:40:56;1;-113.762215;2.3838298;-113.64867;2.4679306
2019-11-13T19:45:56;1;-113.691185;2.4294887;-113.610535;2.4059863
2019-11-13T19:50:56;1;-113.56826;2.466155;-113.630646;2.4186702
2019-11-13T19:55:56;1;-113.908455;2.5179515;-113.64156;2.5967038
2019-11-13T20:00:56;1;-113.90563;2.4712071;-114.00121;2.484394
2019-11-13T20:05:56;1;-113.8651;2.4625108;-113.901535;2.4676533
2019-11-13T20:10:56;1;-113.881355;2.505633;-113.90577;2.446173
2019-11-13T20:15:56;1;-113.82253;2.4525235;-113.87906;2.49376
2019-11-13T20:20:56;1;-113.96068;2.448675;-113.910576;2.5303652
2019-11-13T20:25:56;1;-113.881645;2.4351962;-113.985115;2.4617608
2019-11-13T20:30:56;1;-113.8846;2.4135606;-113.94157;2.3435876
2019-11-13T20:35:56;1;-113.39381;2.5566556;-113.21626;2.63763
2019-11-13T20:40:56;1;-114.10974;2.3685675;-114.018456;2.4165192
2019-11-13T20:45:56;1;-113.86112;2.4523773;-113.84842;2.4594903
2019-11-13T20:50:56;1;-113.68279;2.5051055;-113.803276;2.3776553
2019-11-13T20:55:56;1;-113.59855;2.5003607;-114.00777;2.341414
2019-11-13T21:00:56;1;-113.83348;2.494869;-113.879875;2.4885023
2019-11-13T21:05:56;1;-113.53383;2.5473976;-113.49494;2.551545
2019-11-13T21:10:56;1;-113.71494;2.4629002;-113.86918;2.4450727
2019-11-13T21:15:56;1;-113.74822;2.4645762;-113.91603;2.4230988
2019-11-13T21:20:56;1;-113.85388;2.4268987;-113.97303;2.4069037
2019-11-13T21:25:56;1;-113.63468;2.5335605;-113.67544;2.4771407
2019-11-13T21:30:56;1;-113.926445;2.3836179;-114.03201;2.3469832
2019-11-13T21:35:56;1;-113.669205;2.4951377;-113.386536;2.4388342
2019-11-13T21:40:56;1;-113.814644;2.3766537;-113.800285;2.3706374
2019-11-13T21:45:56;1;-113.81924;2.4697275;-113.80096;2.4309216
2019-11-13T21:50:56;1;-113.74575;2.4353905;-113.73396;2.4385707
2019-11-13T21:55:56;1;-113.93333;2.5001793;-113.94342;2.4778416
2019-11-13T22:00:56;1;-113.87335;2.3765175;-113.97247;2.3474011
2019-11-13T22:05:56;1;-113.72027;2.4016974;-113.74919;2.4291804
2019-11-13T22:10:56;1;-113.64138;2.4733255;-113.70538;2.5409281
2019-11-13T22:15:56;1;-113.765976;2.351749;-113.839386;2.2906842
2019-11-13T22:20:56;1;-113.78847;2.443772;-113.772285;2.4817863
2019-11-13T22:25:56;1;-113.981995;2.3823261;-113.95032;2.4526772
2019-11-13T22:30:56;1;-113.73394;2.4260101;-113.59346;2.3023155
2019-11-13T22:35:56;1;-113.070564;2.619185;-112.47883;2.705864
2019-11-13T22:40:56;1;-113.858284;2.5173857;-113.96835;2.5271964
2019-11-13T22:45:56;1;-113.82242;2.4370916;-113.6969;2.485557
2019-11-13T22:50:56;1;-113.67962;2.4798017;-113.68746;2.5228834
2019-11-13T22:55:56;1;-113.67484;2.451333;-113.75725;2.4572833
2019-11-13T23:00:56;1;-113.907326;2.4381108;-113.99793;2.441733
2019-11-13T23:05:56;1;-113.83758;2.424479;-113.98615;2.46762
2019-11-13T23:10:56;1;-113.88582;2.3462186;-113.88688;2.288583
2019-11-13T23:15:56;1;-113.490425;2.448055;-113.4877;2.4369507
2019-11-13T23:20:56;1;-113.830055;2.3920057;-113.850395;2.365785
2019-11-13T23:25:56;1;-113.82649;2.4831235;-113.77468;2.4743757
2019-11-13T23:30:56;1;-113.72712;2.4716024;-113.87883;2.4646075
2019-11-13T23:35:56;1;-113.24144;2.5268595;-112.83274;2.5448694
2019-11-13T23:40:56;1;-113.7787;2.5061386;-113.57433;2.496
2019-11-13T23:45:56;1;-113.5733;2.4468834;-113.5258;2.4296615
2019-11-13T23:50:56;1;-113.67887;2.3891232;-113.66659;2.3657615
2019-11-13T23:55:56;1;-113.73235;2.475114;-113.67892;2.4859335
2019-11-14T00:00:56;1;-113.6539;2.3828843;-113.82987;2.367841
2019-11-14T00:05:56;1;-113.88706;2.437588;-113.78526;2.4480908
2019-11-14T00:10:56;1;-113.6447;2.4508345;-113.79257;2.4669738
2019-11-14T00:15:56;1;-113.76608;2.3949196;-113.68298;2.3778493
2019-11-14T00:20:56;1;-113.614296;2.4775565;-113.534325;2.4706874
2019-11-14T00:25:56;1;-113.791016;2.440909;-113.76681;2.4875581
2019-11-14T00:30:56;1;-113.71374;2.4186556;-113.60978;2.3800032
2019-11-14T00:35:56;1;-113.30238;2.5341632;-112.76819;2.5907884
2019-11-14T00:40:56;1;-113.83453;2.4435418;-113.737175;2.4349015
2019-11-14T00:45:56;1;-113.948235;2.4027383;-113.8707;2.4325967
2019-11-14T00:50:56;1;-113.67607;2.4722426;-113.71543;2.4712524
2019-11-14T00:55:56;1;-113.683914;2.458258;-113.65499;2.4073539
2019-11-14T01:00:56;1;-113.88663;2.4544175;-113.81624;2.4567692
2019-11-14T01:05:56;1;-113.83632;2.4618287;-114.00366;2.3711329
2019-11-14T01:10:56;1;-113.827354;2.4734924;-113.809044;2.3910162
2019-11-14T01:15:56;1;-113.74909;2.46246;-113.69;2.4337394
2019-11-14T01:20:56;1;-113.71552;2.4071257;-113.75115;2.3893144
2019-11-14T01:25:56;1;-113.763504;2.433912;-113.77977;2.4076319
2019-11-14T01:30:56;1;-113.63165;2.4321308;-113.60705;2.4253254
2019-11-14T01:35:56;1;-112.88306;2.617398;-112.14941;2.6664143
2019-11-14T01:40:56;1;-113.80787;2.5383208;-113.9178;2.5312383
2019-11-14T01:45:56;1;-113.67628;2.4954062;-113.75015;2.499188
2019-11-14T01:50:56;1;-113.73818;2.373085;-113.659775;2.4156327
2019-11-14T01:55:56;1;-113.49895;2.5721157;-113.474434;2.6195676
2019-11-14T02:00:56;1;-113.80455;2.3999858;-113.7809;2.397463
2019-11-14T02:05:56;1;-113.61547;2.3796694;-113.58878;2.3780413
2019-11-14T02:10:56;1;-113.49716;2.5207396;-113.42194;2.6117618
2019-11-14T02:15:56;1;-113.60216;2.4874868;-113.68557;2.4454193
2019-11-14T02:20:56;1;-113.71266;2.3932135;-113.685135;2.426321
2019-11-14T02:25:56;1;-113.6354;2.4654732;-113.61796;2.4955685
2019-11-14T02:30:56;1;-113.735466;2.4068694;-113.5515;2.3134203
2019-11-14T02:35:56;1;-113.04242;2.6301298;-112.443306;2.7305293
2019-11-14T02:40:56;1;-113.83769;2.4121447;-113.87499;2.4900353
2019-11-14T02:45:56;1;-113.56593;2.4660847;-113.752;2.4695451
2019-11-14T02:50:56;1;-113.68706;2.4725056;-113.64675;2.555393
2019-11-14T02:55:56;1;-113.6667;2.44414;-113.48617;2.3703017
2019-11-14T03:00:56;1;-113.960754;2.4102004;-113.9979;2.3770602
2019-11-14T03:05:56;1;-113.91534;2.3670335;-113.799416;2.3986466
2019-11-14T03:10:56;1;-113.71069;2.4132326;-113.80951;2.3836555
2019-11-14T03:15:56;1;-113.72751;2.4518902;-113.61965;2.4732943
2019-11-14T03:20:56;1;-113.362;2.4539573;-113.33589;2.4674811
2019-11-14T03:25:56;1;-113.532616;2.5002315;-113.4623;2.5154214
2019-11-14T03:30:56;1;-113.67802;2.390068;-113.779175;2.5158877
2019-11-14T03:35:56;1;-112.99974;2.6633167;-112.39363;2.8333042
2019-11-14T03:40:56;1;-113.66637;2.4121635;-113.54639;2.5022388
2019-11-14T03:45:56;1;-113.553764;2.4826317;-113.60612;2.5029082
2019-11-14T03:50:56;1;-113.76303;2.4496627;-113.74426;2.516952
2019-11-14T03:55:56;1;-113.39764;2.4469;-113.25756;2.4597235
2019-11-14T04:00:56;1;-113.54362;2.4239867;-113.56881;2.3874602
2019-11-14T04:05:56;1;-113.58789;2.4605489;-113.458466;2.4760926
2019-11-14T04:10:56;1;-113.57313;2.5368354;-113.66054;2.5562453
2019-11-14T04:15:56;1;-113.767586;2.373771;-113.71445;2.431119
2019-11-14T04:20:56;1;-113.42837;2.4047844;-113.41711;2.3128676
2019-11-14T04:25:56;1;-113.49388;2.4676044;-113.49861;2.3904302
2019-11-14T04:30:56;1;-113.56685;2.4881132;-113.52275;2.5369773
2019-11-14T04:35:56;1;-113.10781;2.6090713;-112.56577;2.6859348
2019-11-14T04:40:56;1;-113.595215;2.4667585;-113.465004;2.5058882
2019-11-14T04:45:56;1;-113.79769;2.460849;-113.69874;2.471622
2019-11-14T04:50:56;1;-113.56491;2.4359896;-113.502045;2.3554893
2019-11-14T04:55:56;1;-113.91909;2.2803283;-114.095604;2.3008575
2019-11-14T05:00:56;1;-113.75927;2.390816;-113.771484;2.4529693
2019-11-14T05:05:56;1;-113.83099;2.5725846;-113.831696;2.5025191
2019-11-14T05:10:56;1;-113.74374;2.4460902;-113.676025;2.519659
2019-11-14T05:15:56;1;-113.79182;2.3306046;-113.77407;2.3287036
2019-11-14T05:20:56;1;-113.77078;2.4226623;-113.67227;2.498068
2019-11-14T05:25:56;1;-113.76454;2.4070325;-113.79113;2.4148664
2019-11-14T05:30:56;1;-113.78426;2.4345713;-113.82428;2.5146646
2019-11-14T05:35:56;1;-113.36656;2.6285164;-112.947426;2.7303321
2019-11-14T05:40:56;1;-113.92596;2.497366;-114.00393;2.4270341
2019-11-14T05:45:56;1;-113.9345;2.363863;-114.032425;2.373775
2019-11-14T05:50:56;1;-113.95846;2.4911249;-113.87132;2.5279715
2019-11-14T05:55:56;1;-113.88296;2.4786747;-113.8286;2.5158362
2019-11-14T06:00:56;1;-114.2786;2.4132125;-114.40904;2.4058475
2019-11-14T06:05:56;1;-112.91331;2.4037962;-112.87344;2.4825468
2019-11-14T06:10:56;1;-113.32989;2.4144132;-113.40382;2.4164019
2019-11-14T06:15:56;1;-113.35288;2.4150872;-113.51482;2.3731558
2019-11-14T06:20:56;1;-113.47311;2.4927254;-113.55348;2.5544727
2019-11-14T06:25:56;1;-113.589905;2.4281673;-113.64417;2.4021618
2019-11-14T06:30:56;1;-113.57014;2.5069134;-113.64044;2.5641024
2019-11-14T06:40:56;1;-113.47389;2.4428148;-113.365524;2.4300287
2019-11-14T06:45:56;1;-113.40451;2.5569723;-113.5135;2.4751968
2019-11-14T06:50:56;1;-113.652336;2.4417565;-113.746;2.5268111
2019-11-14T06:55:56;1;-113.56062;2.4354398;-113.700325;2.3751426
2019-11-14T07:00:56;1;-113.64606;2.447259;-113.75251;2.3879893
2019-11-14T07:05:56;1;-110.00646;3.9850488;-113.66519;2.3892264
2019-11-14T07:10:56;1;-112.21638;2.8802888;-113.77357;2.396742
2019-11-14T07:15:56;1;-110.17786;4.144433;-113.92418;2.459773
2019-11-14T07:20:56;1;-112.4085;2.9071302;-113.82366;2.4423845
2019-11-14T07:25:56;1;-113.16639;2.500398;-113.6625;2.4165192
2019-11-14T07:30:56;1;-113.03844;2.6613238;-113.52773;2.5558827
2019-11-14T07:35:56;1;-112.76216;2.6961772;-113.059784;2.5969112
2019-11-14T07:40:56;1;-111.311295;3.6587594;-114.01351;2.5409386
2019-11-14T07:45:56;1;-106.57997;5.4675527;-113.25199;2.457915
2019-11-14T07:50:56;1;-112.1079;3.0486488;-113.63794;2.42303
2019-11-14T07:55:56;1;-105.30434;6.130306;-113.675995;2.375275
2019-11-14T08:00:56;1;-112.44228;2.6878252;-113.13576;2.4490602
2019-11-14T08:05:56;1;-107.02712;5.4490848;-113.62749;2.4859762
2019-11-14T08:10:56;1;-108.88163;4.559036;-113.767654;2.4647226
2019-11-14T08:15:56;1;-111.219284;3.523999;-113.99468;2.3219678
2019-11-14T08:20:56;1;-112.2056;3.142887;-114.172035;2.4154274
2019-11-14T08:25:56;1;-110.79854;3.8424327;-113.93925;2.4386904
2019-11-14T08:30:56;1;-110.579994;3.8134189;-113.99352;2.3203366
2019-11-14T08:35:56;1;-110.94619;3.5988092;-112.83608;2.862456
2019-11-14T08:40:56;1;-112.03454;3.0003567;-113.42281;2.360569
2019-11-14T11:05:56;1;-109.95587;4.032666;-113.40405;2.4547656
2019-11-14T11:10:56;1;-107.72767;4.919927;-113.48837;2.4053311
2019-11-14T11:15:56;1;-110.02479;4.058902;-113.5972;2.457272
2019-11-14T11:20:56;1;-108.786354;4.679604;-113.70421;2.471929
2019-11-14T11:25:56;1;-109.35047;4.3436084;-113.6032;2.4805272
2019-11-14T11:30:56;1;-108.925964;4.5860095;-113.9079;2.3762867
2019-11-17T11:15:56;1;-139.99808;0.045443267;-140.0;0.0
2019-11-17T11:20:56;1;-139.99683;0.04760497;-139.99637;0.04993039
2019-11-17T11:25:56;1;-139.9931;0.07446258;-139.99734;0.035296265
2019-11-17T11:30:56;1;-139.99522;0.0703256;-139.994;0.08653022
2019-11-17T11:35:56;1;-139.99535;0.06417601;-139.99724;0.045613058
2019-11-17T11:40:56;1;-139.99863;0.03213058;-139.99911;0.020412415
2019-11-17T11:45:56;1;-139.99747;0.059253942;-139.99577;0.08164966
2019-11-17T11:50:56;1;-139.99956;0.01437399;-139.99911;0.020412415
2019-11-17T11:55:56;1;-139.99579;0.062570155;-139.99327;0.084030196
2019-11-17T12:00:56;1;-139.9931;0.07446258;-139.98886;0.09529849
2019-11-17T12:05:56;1;-139.9956;0.07180334;-139.99301;0.09343727
2019-11-17T12:10:56;1;-139.99573;0.06579202;-139.99226;0.0911193
2019-11-17T12:15:56;1;-139.99252;0.098429196;-139.98666;0.13672878
2019-11-17T12:20:56;1;-139.99203;0.11213955;-139.99191;0.12413025
2019-11-17T12:25:56;1;-139.9885;0.110943735;-139.9915;0.088732965
2019-11-17T12:30:56;1;-139.98943;0.107224554;-139.99261;0.076148234
2019-11-17T12:35:56;1;-139.99634;0.053703047;-139.99538;0.061146304
2019-11-17T12:40:56;1;-139.99496;0.062515505;-139.99734;0.035296265
2019-11-17T12:45:56;1;-139.99208;0.09940729;-139.99213;0.09559002
2019-11-17T12:50:56;1;-139.99522;0.0703256;-139.99724;0.045613058
2019-11-17T12:55:56;1;-139.99184;0.09403328;-139.99017;0.107780255
2019-11-17T13:00:56;1;-139.99387;0.077251606;-139.99127;0.09768822
2019-11-17T13:05:56;1;-139.99026;0.09166633;-139.99261;0.076148234
2019-11-17T13:10:56;1;-139.9857;0.13203327;-139.97945;0.17010914
2019-11-17T13:15:56;1;-139.99727;0.045405645;-140.0;0.0
2019-11-17T13:20:56;1;-139.99146;0.09289507;-139.9874;0.116856314
2019-11-17T13:25:56;1;-139.98997;0.10232566;-139.98607;0.13188206
2019-11-17T13:30:56;1;-139.98763;0.12410429;-139.98706;0.1271203
2019-11-17T13:35:56;1;-139.99376;0.08243143;-139.99701;0.061237242
2019-11-17T13:40:56;1;-139.99092;0.12682778;-139.99724;0.045613058
2019-11-17T13:45:56;1;-139.99583;0.05917313;-139.99338;0.07890722
2019-11-17T13:50:56;1;-139.99245;0.08602569;-139.99538;0.061146304
2019-11-17T13:55:56;1;-139.98654;0.13053107;-139.97762;0.17237578
2019-11-17T14:00:56;1;-139.99042;0.10134479;-139.9925;0.081444934
2019-11-17T14:05:56;1;-139.99825;0.02871229;-139.99734;0.035296265
2019-11-17T14:10:56;1;-139.98663;0.12893718;-139.98753;0.13514353
2019-11-17T14:15:56;1;-139.99467;0.077304676;-139.99911;0.020412415
2019-11-17T14:20:56;1;-139.99255;0.09626401;-139.99338;0.07890722
2019-11-17T14:25:56;1;-139.99156;0.08833099;-139.98752;0.11322841
2019-11-17T14:30:56;1;-139.99232;0.09070584;-139.99701;0.061237242
2019-11-17T14:35:56;1;-139.99126;0.112090774;-139.99449;0.06440948
2019-11-17T14:40:56;1;-139.99298;0.07982359;-139.99184;0.07327595
2019-11-17T14:45:56;1;-139.98697;0.12065228;-139.9884;0.1114482
2019-11-17T14:50:56;1;-139.99448;0.06726519;-139.99823;0.028843407
2019-11-17T14:55:56;1;-139.9931;0.07446258;-139.9915;0.088732965
2019-11-17T15:00:56;1;-139.98984;0.106290504;-139.99074;0.1134984
2019-11-17T15:05:56;1;-139.99393;0.09081129;-139.9926;0.10599385
2019-11-17T15:10:56;1;-139.99617;0.06422392;-139.99701;0.061237242
2019-11-17T15:15:56;1;-139.99535;0.06417601;-139.99426;0.07627601
2019-11-17T15:20:56;1;-139.98926;0.122555114;-139.99213;0.09559002
2019-11-17T15:40:56;1;-139.99702;0.060958445;-139.99577;0.08164966
2019-11-17T15:45:56;1;-139.99672;0.05561801;-139.99911;0.020412415
2019-11-17T15:50:56;1;-139.99623;0.060919184;-140.0;0.0
2019-11-17T15:55:56;1;-139.9954;0.06086867;-139.99338;0.07890722
2019-11-17T16:00:56;1;-139.99171;0.111189924;-139.98419;0.15642206
2019-11-17T16:05:56;1;-139.99583;0.05917313;-139.99548;0.053890128
2019-11-17T16:10:56;1;-139.99715;0.05374758;-139.99614;0.064517386
2019-11-17T16:15:56;1;-139.9961;0.067366734;-139.99489;0.084129475
2019-11-17T16:20:56;1;-139.98528;0.122192025;-139.98529;0.13021268
2019-11-17T16:25:56;1;-139.9953;0.067321055;-139.99812;0.04082483
2019-11-17T16:30:56;1;-139.99281;0.087249644;-139.99004;0.11158543
2019-11-17T16:35:56;1;-139.99332;0.08364872;-139.98741;0.116856314
2019-11-17T16:40:56;1;-139.99638;0.049703646;-139.99637;0.04993039
2019-11-17T16:45:56;1;-139.99512;0.07597908;-139.99315;0.08885831
2019-11-17T16:50:56;1;-139.99683;0.04760497;-139.99911;0.020412415
2019-11-17T16:55:56;1;-139.99715;0.05374758;-139.99812;0.04082483
2019-11-17T17:00:56;1;-139.99403;0.068754025;-139.9936;0.067504816
2019-11-17T17:05:56;1;-139.99524;0.0703256;-139.99426;0.07627601
2019-11-17T17:10:56;1;-139.99442;0.07027212;-139.99261;0.076148234
2019-11-17T17:15:56;1;-139.993;0.09520994;-139.98863;0.12725157
2019-11-17T17:20:56;1;-139.99135;0.09724517;-139.99239;0.0864176
2019-11-17T17:25:56;1;-139.99203;0.10146613;-139.99278;0.101980254
2019-11-17T17:30:56;1;-139.9941;0.06567763;-139.9946;0.057566106
2019-11-17T17:35:56;1;-139.99547;0.057370987;-139.9936;0.067504816
2019-11-17T17:40:56;1;-139.99052;0.09717837;-139.9915;0.088732965
2019-11-17T17:45:56;1;-139.9936;0.070208855;-139.9936;0.067504816
2019-11-17T17:50:56;1;-139.99579;0.062570155;-139.99812;0.04082483
2019-11-17T17:55:56;1;-139.99251;0.08358741;-139.99734;0.035296265
2019-11-17T18:00:56;1;-139.99084;0.100352615;-139.98816;0.11870194
2019-11-17T18:05:56;1;-139.99046;0.11203588;-139.99449;0.06440948
2019-11-17T18:10:56;1;-139.9901;0.11107921;-139.99724;0.045613058
2019-11-17T18:15:56;1;-139.99442;0.07027212;-139.9915;0.088732965
2019-11-17T18:20:56;1;-139.9982;0.035184663;-139.99724;0.045613058
2019-11-17T18:25:56;1;-139.99457;0.08248117;-139.99515;0.073541276
2019-11-17T21:20:56;1;-140.0;0.0;-140.0;0.0
2019-11-17T21:25:56;1;-139.99747;0.059253942;-140.0;0.0
2019-11-17T21:30:56;1;-139.99863;0.03213058;-139.99812;0.04082483
2019-11-17T21:35:56;1;-139.99814;0.040638965;-140.0;0.0
2019-11-17T21:40:56;1;-139.99913;0.020319482;-139.99911;0.020412415
2019-11-17T21:45:56;1;-139.99547;0.057370987;-139.9936;0.067504816
2019-11-17T21:50:56;1;-139.99573;0.06579202;-139.99625;0.057686813
2019-11-17T21:55:56;1;-139.9938;0.0952566;-139.9914;0.118936114
2019-11-17T22:00:56;1;-139.99731;0.04059689;-139.99823;0.028843407
2019-11-17T22:05:56;1;-139.99234;0.1130797;-139.98642;0.1552638
2019-11-17T22:10:56;1;-139.99113;0.10342784;-139.98886;0.12051353
2019-11-17T22:15:56;1;-139.99765;0.04764803;-139.99823;0.028843407
2019-11-17T22:20:56;1;-139.99782;0.032088004;-139.99823;0.028843407
2019-11-17T22:25:56;1;-139.9959;0.055568825;-139.99724;0.045613058
2019-11-17T22:30:56;1;-139.99556;0.08858214;-140.0;0.0
2019-11-19T15:10:56;1;-140.0;0.0;-140.0;0.0
2019-11-19T15:15:56;1;-139.99907;0.02874798;-140.0;0.0
2019-11-19T15:20:56;1;-139.99913;0.020319482;-139.99911;0.020412415
2019-11-19T15:25:56;1;-139.99956;0.01437399;-140.0;0.0
2019-11-19T15:35:56;1;-139.99825;0.02871229;-139.99734;0.035296265
2019-11-19T15:40:56;1;-139.99825;0.02871229;-139.99734;0.035296265
2019-11-19T15:45:56;1;-139.99863;0.03213058;-140.0;0.0
2019-11-19T15:55:56;1;-139.99776;0.03798954;-139.99637;0.04993039
2019-11-21T11:15:57;1;-139.99956;0.01437399;-140.0;0.0
2019-11-21T11:20:56;1;-139.99956;0.01437399;-140.0;0.0
2019-11-21T11:25:56;1;-139.99654;0.06583356;-139.99577;0.08164966
2019-11-21T11:30:56;1;-139.99704;0.060958445;-140.0;0.0
2019-11-21T11:35:56;1;-139.99683;0.0476246;-139.99812;0.04085889
2019-11-21T11:40:56;1;-139.99913;0.020319482;-139.99823;0.028843407
2019-11-21T11:45:56;1;-139.99486;0.06881365;-139.99538;0.061146304
2019-11-21T11:50:56;1;-139.99634;0.074664265;-139.99911;0.020412415
2019-11-21T11:55:56;1;-139.99364;0.1015604;-139.99278;0.101980254
2019-11-21T12:00:56;1;-139.99486;0.06881365;-139.99911;0.020412415
2019-11-21T12:05:56;1;-139.99825;0.02871229;-139.99823;0.028843407
2019-11-21T12:10:56;1;-139.99913;0.020319482;-139.99911;0.020412415
2019-11-21T12:15:56;1;-139.99765;0.04764803;-139.99823;0.028843407
2019-11-21T12:20:56;1;-139.99222;0.106464006;-140.0;0.0
2019-11-21T12:25:56;1;-139.9961;0.067366734;-139.99637;0.04993039
2019-11-21T12:40:56;1;-139.99638;0.049703646;-139.9936;0.067504816
2019-11-21T12:45:56;1;-139.99698;0.06426116;-139.9939;0.091226116
2019-11-21T12:50:56;1;-139.99448;0.06726519;-139.99075;0.0862726
2019-11-21T12:55:56;1;-139.99266;0.10551188;-139.99005;0.13059674
2019-11-21T13:00:56;1;-139.99078;0.11479855;-139.98926;0.13213499
2019-11-21T13:05:56;1;-139.99863;0.03213058;-139.99724;0.045613058
2019-11-21T13:10:56;1;-139.99721;0.04975176;-139.99437;0.07059253
2019-11-21T13:15:56;1;-139.99232;0.09070584;-139.99449;0.06440948
2019-11-21T13:20:56;1;-139.99178;0.09620719;-139.99004;0.11158543
2019-11-21T13:25:56;1;-139.99808;0.045443267;-139.99701;0.061237242
2019-11-21T13:30:56;1;-139.99715;0.05374758;-140.0;0.0
2019-11-21T13:35:56;1;-139.99486;0.06881365;-139.99538;0.061146304
2019-11-21T13:40:56;1;-139.9959;0.055568825;-139.99449;0.06440948
2019-11-21T13:45:56;1;-139.99457;0.08248117;-139.99327;0.084030196
2019-11-21T13:50:56;1;-139.99808;0.045443267;-139.99701;0.061237242
2019-11-21T13:55:56;1;-139.9966;0.06261384;-140.0;0.0
2019-11-21T14:00:56;1;-139.99776;0.03798954;-139.99911;0.020412415
2019-11-21T14:05:56;1;-139.9931;0.09076235;-139.99162;0.11169758
2019-11-21T14:10:56;1;-139.99512;0.07597908;-139.99315;0.08885831
2019-11-21T14:15:56;1;-139.99387;0.077251606;-139.99701;0.061237242
2019-11-21T14:20:56;1;-139.99672;0.05561801;-139.99426;0.07627601
2019-11-21T14:25:56;1;-139.99152;0.104451336;-140.0;0.0
2019-11-21T14:30:56;1;-139.99332;0.08364872;-139.98839;0.1114482
2019-11-21T14:35:56;1;-139.99611;0.067366734;-139.99701;0.061237242
2019-11-21T14:40:56;1;-139.99263;0.07848392;-139.99075;0.0862726
2019-11-21T14:45:56;1;-139.99571;0.06579202;-139.99312;0.08885831
2019-11-21T14:50:56;1;-139.99226;0.106464006;-139.99004;0.11158543
2019-11-21T14:55:56;1;-139.99348;0.09191953;-139.99348;0.10404988
2019-11-21T15:00:56;1;-139.99184;0.107406095;-139.99724;0.045613058
2019-11-21T15:05:56;1;-139.99467;0.07733656;-139.99016;0.1078698
2019-11-21T15:10:56;1;-139.99518;0.07320693;-139.99515;0.073541276
2019-11-21T15:15:56;1;-139.99623;0.060919184;-139.99625;0.057686813
2019-11-21T15:20:56;1;-139.99133;0.09724517;-139.98915;0.11337576
2019-11-21T15:25:56;1;-139.99496;0.08124007;-139.99348;0.10404988
2019-11-21T15:30:56;1;-139.9954;0.07997759;-139.99812;0.04082483
2019-11-21T15:35:56;1;-139.99658;0.06261384;-139.99911;0.020412415
2019-11-21T15:40:56;1;-139.99765;0.04764803;-139.99823;0.028843407
2019-11-21T15:45:56;1;-139.99297;0.09735758;-139.98967;0.12229261